#timestamp,LO_Frequency,Hit,StdDev 
1569448815.5,286047001.8,P
1569448835.4,286047001.5,N
1569448855.2,286047004.4,P
1569448875.0,286047000.1,N
1569448875.9,286047000.1,N
1569448895.8,286047001.0,N
1569448915.6,286046998.1,N
1569448935.4,286047000.9,N
1569448955.3,286046998.6,N
1569448975.1,286047000.3,N
1569448995.9,286047001.1,N
1569449015.7,286047002.6,N
1569449035.5,286046999.8,N
1569449055.4,286047000.3,N
1569449075.2,286047002.5,N
1569449095.1,286047001.8,N
1569449096.0,286047001.8,N
1569449115.8,286047001.6,N
1569449135.6,286047002.1,N
1569449155.5,286047002.4,N
1569449175.3,286046999.7,N
1569449195.1,286047002.7,N
1569449215.9,286047002.2,N
1569449235.7,286047000.4,N
1569449255.6,286046999.7,N
1569449275.4,286047001.7,N
1569449295.2,286047003.1,N
1569449315.1,286047001.7,N
1569449316.0,286047001.7,N
1569449335.8,286047001.3,N
1569449355.7,286047001.9,N
1569449375.5,286047000.1,N
1569449395.3,286047002.7,N
1569449415.2,286047000.2,N
1569449435.0,286047002.8,N
1569449435.9,286047002.8,N
1569449455.8,286047002.2,N
1569449475.6,286047000.2,N
1569449495.4,286047002.7,N
1569449515.3,286047000.0,N
1569449535.1,286046999.8,N
1569449555.9,286047000.6,N
1569449575.7,286047000.0,N
1569449595.5,286046999.7,N
1569449615.4,286047000.9,N
1569449635.2,286046999.7,N
1569449655.1,286047001.3,N
1569449656.0,286047001.3,N
1569449675.8,286047004.2,Y
1569449695.6,286047004.3,P
1569449715.5,286047002.4,N
1569449735.3,286047002.3,N
1569449755.1,286046999.7,N
1569449775.9,286047000.8,N
1569449795.7,286046998.5,N
1569449815.6,286047000.4,N
1569449835.4,286046999.0,N
1569449855.2,286046998.8,N
1569449875.1,286046999.3,N
1569449876.0,286046999.3,N
1569449895.8,286047000.8,N
1569449915.7,286046999.9,N
1569449935.5,286047000.8,N
1569449955.3,286047001.0,N
1569449975.2,286047001.0,N
1569449995.0,286047000.6,N
1569449995.9,286047000.6,N
1569450015.8,286047001.2,N
1569450035.6,286046998.3,N
1569450055.4,286047000.7,N
1569450075.3,286046998.2,N
1569450095.1,286046998.8,N
1569450115.8,286046999.1,N
1569450135.7,286046999.5,N
1569450155.5,286046998.7,N
1569450175.4,286046999.2,N
1569450195.2,286047001.2,N
1569450215.0,286046998.2,N
1569450215.9,286046998.2,N
1569450235.8,286046998.4,N
1569450255.6,286047002.8,N
1569450275.5,286047000.5,N
1569450295.3,286046999.8,N
1569450315.1,286047002.0,N
1569450335.9,286047000.1,N
1569450355.7,286047000.2,N
1569450375.6,286047001.5,N
1569450395.4,286047004.4,Y
1569450415.2,286047003.8,P
1569450435.1,286047001.3,N
1569450436.0,286047001.3,N
1569450455.8,286047001.8,N
1569450475.7,286047002.1,N
1569450495.5,286047002.8,N
1569450515.3,286047000.5,N
1569450535.2,286046999.9,N
1569450555.0,286047000.6,N
1569450555.9,286047000.6,N
1569450575.8,286047000.0,N
1569450595.6,286047000.1,N
1569450615.4,286047000.2,N
1569450635.3,286047002.4,N
1569450655.1,286047004.2,Y
1569450675.9,286047000.3,P
1569450695.7,286047000.0,N
1569450715.5,286047004.3,P
1569450735.4,286047001.7,N
1569450755.2,286047004.4,N
1569450775.0,286047002.6,N
1569450775.9,286047002.6,N
1569450795.8,286047000.0,N
1569450815.6,286047000.4,N
1569450835.5,286047002.7,N
1569450855.3,286047000.9,N
1569450875.1,286047000.1,N
1569450895.9,286047002.6,N
1569450915.7,286047001.6,N
1569450935.6,286047003.8,N
1569450955.4,286047003.3,N
1569450975.2,286047004.6,Y
1569450995.1,286047005.6,P
1569450996.0,286047005.6,P
1569451015.8,286047007.0,P
1569451035.7,286047007.6,Y
1569451055.5,286046999.9,P
1569451075.3,286047000.7,N
1569451095.2,286047000.6,N
1569451115.0,286047000.0,N
1569451115.9,286047000.0,N
1569451135.7,286047002.6,N
1569451155.6,286047000.4,N
1569451175.4,286047000.6,N
1569451195.3,286047000.6,N
1569451215.1,286047001.0,N
1569451235.8,286046996.5,N
1569451255.7,286046996.6,N
1569451275.5,286046996.6,N
1569451295.4,286046997.5,N
1569451315.2,286046997.8,N
1569451335.0,286046997.8,N
1569451335.9,286046997.8,N
1569451355.8,286046996.5,N
1569451375.6,286046994.9,N
1569451395.4,286046995.8,N
1569451415.3,286046995.7,N
1569451435.1,286046995.8,N
1569451455.9,286046996.4,N
1569451475.7,286046995.4,N
1569451495.5,286046995.0,N
1569451515.4,286046995.5,N
1569451535.2,286046995.8,N
1569451555.0,286046995.7,N
1569451556.0,286046995.7,N
1569451575.8,286046995.0,N
1569451595.6,286046997.6,N
1569451615.5,286046997.1,N
1569451635.3,286046996.6,N
1569451655.1,286046999.4,N
1569451675.9,286046996.5,N
1569451695.7,286046999.2,N
1569451715.6,286046997.8,N
1569451735.4,286046996.0,N
1569451755.2,286046995.5,N
1569451775.1,286046996.3,N
1569451776.0,286046996.3,Y
1569451795.8,286046999.3,P
1569451815.7,286046999.4,N
1569451835.6,286046996.5,N
1569451855.4,286046999.0,N
1569451875.2,286046997.1,N
1569451895.1,286046997.9,N
1569451896.0,286046997.9,N
1569451915.8,286046993.7,Y
1569451935.7,286046996.8,P
1569451955.5,286046999.4,N
1569451975.3,286046999.2,N
1569451995.2,286046996.6,Y
1569452015.0,286046999.1,P
1569452015.9,286046999.1,N
1569452035.7,286046995.0,P
1569452055.6,286046994.9,Y
1569452075.4,286046998.1,P
1569452095.3,286046999.3,P
1569452115.1,286046998.4,N
1569452135.8,286046997.0,Y
1569452155.7,286047000.4,P
1569452175.5,286046999.7,N
1569452195.4,286047000.6,N
1569452215.2,286046999.7,N
1569452235.0,286047000.8,N
1569452235.9,286047000.8,N
1569452255.8,286047000.3,N
1569452275.6,286047001.9,N
1569452295.5,286047003.9,Y
1569452315.3,286047004.1,P
1569452335.1,286047001.8,N
1569452355.9,286047002.1,N
1569452375.7,286047000.5,N
1569452395.5,286046998.2,N
